This demonstration page uses our WeatherBlox Daily Observations layout. Learn more.

Left ArrowRight Arrow

36.19886, -115.1175

Hourly Observations for February 26, 2017

Temp ( °F °C ) Dew Point ( °F °C ) Humidity (%) Winds ( mph kmh ) Pressure ( in mb ) Visibility ( mi km ) Precip ( " mm )
12:53 am 00:53 Clear 40 4.4 24 -4.4 53 53 NNW 3 6 29.98 1015 10 16 0.00 0.00
1:53 am 01:53 Clear 39 3.9 24 -4.4 55 55 Calm 29.97 1015 10 16 0.00 0.00
2:53 am 02:53 Clear 39 3.9 25 -3.9 57 57 NW 3 6 29.96 1015 10 16 0.00 0.00
3:53 am 03:53 Partly Cloudy 38 3.3 25 -3.9 60 60 NW 3 6 29.96 1014 10 16 0.00 0.00
4:53 am 04:53 Clear 36 2.2 26 -3.3 67 67 NW 3 6 29.96 1015 10 16 0.00 0.00
5:53 am 05:53 Mostly Clear 37 2.8 25 -3.9 62 62 N 6 9 29.97 1015 10 16 0.00 0.00
6:53 am 06:53 Sunny 37 2.8 24 -4.4 59 59 WNW 5 7 29.98 1015 10 16 0.00 0.00
7:53 am 07:53 Sunny 43 6.1 22 -5.6 43 43 NNW 3 6 30.01 1016 10 16 0.00 0.00
8:53 am 08:53 Sunny 47 8.3 22 -5.6 37 37 Calm 29.99 1016 10 16 0.00 0.00
9:53 am 09:53 Sunny 49 9.4 22 -5.6 35 35 SE 5 7 29.99 1016 10 16 0.00 0.00
10:53 am 10:53 Sunny 51 10.6 19 -7.2 28 28 ESE 8 13 29.99 1016 10 16 0.00 0.00
11:53 am 11:53 Sunny 53 11.7 19 -7.2 26 26 E 6 9 29.96 1014 10 16 0.00 0.00
12:53 pm 12:53 Sunny 55 12.8 20 -6.7 25 25 ESE 7 11 29.92 1013 10 16 0.00 0.00
1:53 pm 13:53 Sunny 57 13.9 21 -6.1 25 25 SE 12 19 29.88 1012 10 16 0.00 0.00
2:53 pm 14:53 Sunny 59 15 23 -5 25 25 SE 15 24 29.85 1011 10 16 0.00 0.00
3:53 pm 15:53 Mostly Sunny 59 15 26 -3.3 28 28 SSW 17 28 29.84 1011 10 16 0.00 0.00
4:53 pm 16:53 Sunny 57 13.9 28 -2.2 33 33 SW 12 19 29.83 1010 10 16 0.00 0.00
5:53 pm 17:53 Clear 55 12.8 28 -2.2 35 35 SSW 12 19 29.83 1010 10 16 0.00 0.00
6:53 pm 18:53 Clear 54 12.2 29 -1.7 38 38 SW 13 20 29.84 1011 10 16 0.00 0.00
7:53 pm 19:53 Mostly Clear 53 11.7 30 -1.1 41 41 SSW 14 22 29.83 1010 10 16 0.00 0.00
8:53 pm 20:53 Clear 52 11.1 32 0 47 47 S 16 26 29.83 1010 10 16 0.00 0.00
9:53 pm 21:53 Clear 52 11.1 32 0 47 47 SSW 21 33 29.81 1010 10 16 0.00 0.00
10:53 pm 22:53 Mostly Clear 51 10.6 33 0.6 50 50 S 16 26 29.80 1009 10 16 0.00 0.00
11:53 pm 23:53 Mostly Clear 51 10.6 33 0.6 50 50 S 20 31 29.80 1009 10 16 0.00 0.00

Powered by AerisWeather